Regional Weather Roundup
Issued by NWS

Home | Current Version | Previous Version | Text Only | Print | Product List | Glossary Off
Versions: 1 2 3 4 5 6 7 8 9 10 11 12 13 14 15 16 17 18 19 20 21 22 23 24 25 26 27 28 29 30 31 32 33 34 35 36 37 38 39 40 41 42 43 44 45 46 47 48 49 50

000
ASUS43 KLMK 272310
RWRKY
KENTUCKY REGIONAL WEATHER ROUNDUP
NATIONAL WEATHER SERVICE LOUISVILLE KY
700 PM EDT MON APR 27 2015

NOTE "FAIR" INDICATES FEW OR NO CLOUDS BELOW 12,000 FEET
WITH NO SIGNIFICANT WEATHER AND/OR OBSTRUCTIONS TO VISIBILITY.

KYZ001>023-026-027-061>063-070>075-280000-
WESTERN AND SOUTH CENTRAL KENTUCKY

CITY           SKY/WX    TMP DP  RH WIND       PRES   REMARKS
PADUCAH        MOSUNNY   64  39  39 NE14      29.97F
HENDERSON      MOSUNNY   63  37  39 N12       29.99S
OWENSBORO      MOSUNNY   64  39  39 N10       29.99S
HOPKINSVILLE   SUNNY     62  38  40 N10       29.96S
BOWLING GREEN  SUNNY     65  34  31 NE10      29.96S
GLASGOW        SUNNY     64  34  32 NE9       29.95F
$$

KYZ024-025-028>034-038-045-046-053-280000-
NORTH CENTRAL KENTUCKY

CITY           SKY/WX    TMP DP  RH WIND       PRES   REMARKS
LOUISVILLE/SDF PTSUNNY   65  38  36 N20       29.97R
LOUISVILLE/LOU SUNNY     63  37  38 N10       29.98R
FORT KNOX      SUNNY     63  36  36 N10       29.95S
$$

KYZ035>037-039>044-047>052-055>060-089>105-280000-
NORTHEAST KENTUCKY

CITY           SKY/WX    TMP DP  RH WIND       PRES   REMARKS
LEXINGTON      CLOUDY    59  37  44 NW12      29.96S
COVINGTON      PTSUNNY   57  38  48 N12       29.99R
FRANKFORT      CLOUDY    62  35  36 NW8       29.96R
$$

KYZ054-064>069-076>088-106>120-280000-
SOUTHEAST KENTUCKY

CITY           SKY/WX    TMP DP  RH WIND       PRES   REMARKS
JACKSON        CLOUDY    59  32  36 NW9       29.95S
LONDON         SUNNY     62  29  28 VRB5      29.96R
SOMERSET       MOSUNNY   59  34  38 NE10      29.97S
MIDDLESBORO    SUNNY     62  33  33 N8        29.94R
MONTICELLO     MOCLDY    65  38  36 N10       29.98R
$$




USA.gov is the U.S. government's official web portal to all federal, state and local government web resources and services.